Flag for U.S.A. Weather past 2 weeks in Idaho Falls, Idaho, U.S.A.

Now
63 °F

Clear.


Feels Like: 63 °F
Forecast: 53 / 84 °F
Wind: No wind

Location: Fanning Field

Current Time: Jul 30, 2014 at 11:25:21 PM

Latest Report: Jul 30, 2014 at 10:53 PM


Visibility: 10 mi

Pressure: 30.15 "Hg

Humidity: 68%

Dew point: 52 °F

Location of Idaho FallsLocation

Historic Weather in Idaho Falls — Graph

°F

Idaho Falls temperature yesterday

Maximum temperature yesterday: 76 °F (at 5:53 PM)
Minimum temperature yesterday: 61 °F (at 11:53 PM)
Average temperature yesterday: 67 °F

Past Weeks' High & Low Weather Summary

 TemperatureHumidityPressure
High95 °F (Jul 27, 5:53 PM)93% (Jul 30, 5:53 AM)30.24 "Hg (Jul 30, 5:53 AM)
Low45 °F (Jul 26, 6:53 AM)9% (Jul 26, 3:53 PM)29.76 "Hg (Jul 20, 6:53 PM)
Average71 °F44%29.98 "Hg
* Reported Jul 15 9:53 PM — Jul 30 9:53 PM, Idaho Falls, Weather by CustomWeather, © 2014

Note: Actual official high and low records may vary slightly from our data, if they occured in-between our weather recording intervals... More about our weather records

Advertising

Idaho Falls weather history for previous 24 hours

 ConditionsComfort  
Time TempWeatherWind HumidityBarometerVisibility
9:53 PM
Jul 30
69 °FPartly sunny.12 mph59%30.16 "Hg10 mi
8:53 PM77 °FOvercast.10 mph36%30.12 "Hg10 mi
7:53 PM79 °FSunny.9 mph32%30.12 "Hg10 mi
6:53 PM83 °FPassing clouds.16 mph28%30.09 "Hg10 mi
5:53 PM83 °FPassing clouds.9 mph28%30.08 "Hg10 mi
4:53 PM83 °FScattered clouds.7 mph31%30.09 "Hg10 mi
3:53 PM83 °FScattered clouds.13 mph31%30.10 "Hg10 mi
2:56 PM83 °FScattered clouds.6 mph31%30.24 "Hg10 mi
1:53 PM78 °FScattered clouds.No wind36%30.13 "Hg10 mi
12:53 PM76 °FScattered clouds.7 mph43%30.14 "Hg10 mi
11:53 AM75 °FScattered clouds.6 mph45%30.15 "Hg10 mi
10:53 AM77 °FPassing clouds.5 mph44%30.14 "Hg10 mi
9:53 AM67 °FPassing clouds.7 mph71%30.16 "Hg10 mi
8:53 AM64 °FPassing clouds.5 mph73%30.17 "Hg10 mi
7:53 AM57 °FPassing clouds.No wind90%30.16 "Hg10 mi
6:53 AM53 °FClear.No wind93%30.16 "Hg10 mi
5:53 AM52 °FClear.5 mph93%30.15 "Hg10 mi
4:53 AM55 °FClear.No wind90%30.13 "Hg10 mi
3:53 AM59 °FClear.3 mph84%30.12 "Hg10 mi
2:53 AM60 °FClear.5 mph80%30.12 "Hg10 mi
1:53 AM61 °FClear.6 mph78%30.13 "Hg10 mi
12:53 AM61 °FClear.8 mph78%30.13 "Hg10 mi
11:53 PM
Jul 29
61 °FClear.5 mph83%30.13 "Hg10 mi
Weather by CustomWeather, © 2014

See weather overviewHow to use our weather pages